Location: Los Gatos B&B
(42.6926°N, 77.0646°W)
Time: 05:08:18
(UTC-04:00)

Amateur Radio Satellites - All Passes

Search period start: 27 April 2015 04:38
Search period end: 28 April 2015 04:38
Location: Los Gatos B&B, 42.6926°N, 77.0646°W

Satellite Date Start Highest point End Downlink Frequencies (MHz)
Time Altitude Azimuth
JAS-2 27 Apr 04:42:24 04:48:17 41° 95° (E) 04:53:34 435.910
DANDE 27 Apr 04:42:45 04:50:19 85° 80° (E) 04:58:57 436.750
Gurwin Techsat 1B 27 Apr 04:50:30 04:55:04 29° 294° (WNW) 04:59:31 435.225
HORYU 2 27 Apr 04:52:28 04:57:00 79° 103° (ESE) 05:01:29 437.375
MOZHAYETS 4 27 Apr 04:54:07 04:58:45 78° 75° (ENE) 05:03:25
M-CUBED/EXP-1 PRIME 27 Apr 05:18:53 05:22:40 24° 61° (ENE) 05:26:33 437.505
CUSAT 1 27 Apr 05:37:05 05:44:07 38° 269° (W) 05:51:29 437.405
Cosmos 2499 27 Apr 05:41:45 05:49:25 57° 76° (ENE) 05:56:33 435.465 / 435.565
STRAND 1 27 Apr 05:43:25 05:45:39 13° 60° (ENE) 05:48:07 437.568
AIST 2 27 Apr 05:47:54 05:50:09 14° 324° (NW) 05:52:18 435.215
AO-7 27 Apr 05:57:16 06:05:36 74° 291° (WNW) 06:13:53 29.400- 29.500
AUBIESAT-1 27 Apr 05:58:51 06:03:28 49° 67° (ENE) 06:08:05 437.475
GONETS M04 27 Apr 05:59:39 06:06:24 24° 279° (W) 06:12:48
DANDE 27 Apr 06:27:23 06:33:07 22° 274° (W) 06:38:56 436.750
JAS-2 27 Apr 06:27:42 06:33:15 31° 296° (WNW) 06:38:10 435.910
PRISM 27 Apr 06:28:07 06:31:56 36° 71° (ENE) 06:35:47 437.425
HORYU 2 27 Apr 06:31:17 06:33:05 12° 299° (WNW) 06:34:39 437.375
CUBESAT XI-V 27 Apr 06:34:59 06:39:35 71° 75° (ENE) 06:44:12 437.345
MOZHAYETS 4 27 Apr 06:35:19 06:36:39 11° 274° (W) 06:37:40
M-CUBED/EXP-1 PRIME 27 Apr 06:52:39 06:57:16 45° 257° (WSW) 07:01:54 437.505
PCSat 27 Apr 07:04:54 07:06:48 12° 104° (ESE) 07:09:02 145.827
CUTE-I 27 Apr 07:12:37 07:17:47 50° 99° (E) 07:22:58 437.470
STRAND 1 27 Apr 07:19:07 07:24:14 86° 260° (W) 07:29:23 437.568
Cubesat XI-IV 27 Apr 07:22:41 07:27:58 63° 101° (E) 07:33:15 437.490
O/OREOS (USA 219) 27 Apr 07:29:26 07:33:17 27° 57° (ENE) 07:37:08 437.305
AUBIESAT-1 27 Apr 07:34:51 07:38:28 20° 263° (W) 07:41:57 437.475
Cosmos 2499 27 Apr 07:35:46 07:42:03 27° 277° (W) 07:47:49 435.465 / 435.565
AO-7 27 Apr 07:51:47 07:57:11 19° 311° (NW) 08:02:16 29.400- 29.500
PRISM 27 Apr 08:04:30 08:07:33 19° 267° (W) 08:10:30 437.425
CUBESAT XI-V 27 Apr 08:15:44 08:17:37 12° 273° (W) 08:19:14 437.345
BRITE-PL 27 Apr 08:19:16 08:22:56 20° 91° (E) 08:26:56 437.365/2234.400
DOVE 4 27 Apr 08:30:01 08:30:19 10° 85° (E) 08:31:00 437.250
PCSat 27 Apr 08:44:07 08:49:32 89° 98° (E) 08:55:01 145.827
CUTE-I 27 Apr 08:53:26 08:57:35 23° 296° (WNW) 09:01:37 437.470
CINEMA 3 27 Apr 09:01:44 09:02:28 10° 85° (E) 09:03:33 145.822/145.860
Cubesat XI-IV 27 Apr 09:03:55 09:07:39 19° 298° (WNW) 09:11:12 437.490
O/OREOS (USA 219) 27 Apr 09:08:44 09:12:43 31° 255° (WSW) 09:16:36 437.305
COMPASS 1 27 Apr 09:11:05 09:13:35 16° 90° (E) 09:16:13 437.405
ANTELSAT 27 Apr 09:34:50 09:37:11 14° 62° (ENE) 09:39:46 437.575/2403.000
GOMX 1 27 Apr 09:35:23 09:40:32 66° 100° (E) 09:45:57 467.674
Oscar 11 27 Apr 09:37:50 09:39:41 13° 88° (E) 09:41:44 145.826/435.025
SEEDS 27 Apr 09:38:11 09:42:09 38° 97° (E) 09:46:07 437.485
Cosmos 2491 27 Apr 09:38:24 09:46:52 49° 73° (ENE) 09:55:24 435.465 / 435.565
HO-68 27 Apr 09:43:14 09:50:19 57° 101° (E) 09:57:21 435.675
CANX-2 27 Apr 09:49:20 09:53:37 70° 101° (E) 09:57:51 2200.000
AAUSAT CUBESAT 2 27 Apr 09:51:12 09:55:05 37° 97° (E) 09:58:58 437.432
BRITE-PL 27 Apr 09:56:44 10:01:45 56° 286° (WNW) 10:07:05 437.365/2234.400
CUTE 1.7 + AOD 2 27 Apr 09:58:12 10:02:30 80° 102° (ESE) 10:06:45 437.475
DOVE 4 27 Apr 10:03:43 10:08:52 83° 100° (E) 10:14:12 437.250
NANOSAT C BR1 27 Apr 10:05:20 10:07:06 13° 63° (ENE) 10:09:03 145.865
POPSAT HIP 1 27 Apr 10:08:57 10:11:04 14° 64° (ENE) 10:13:21 437.405
TIGRISAT 27 Apr 10:22:02 10:26:14 39° 70° (ENE) 10:30:35 435.000
CUBEBUG 2 27 Apr 10:23:19 10:27:44 37° 96° (E) 10:32:09 437.445
BUGSAT 1 27 Apr 10:24:31 10:26:24 13° 64° (ENE) 10:28:27 437.445
UNISAT 6 27 Apr 10:27:00 10:31:20 45° 72° (ENE) 10:35:48 437.425
PCSat 27 Apr 10:30:04 10:33:46 18° 321° (NW) 10:37:22 145.827
CINEMA 3 27 Apr 10:35:24 10:40:27 89° 116° (ESE) 10:45:30 145.822/145.860
DUCHIFAT 1 27 Apr 10:36:48 10:40:16 26° 68° (ENE) 10:43:50 145.980
POLYITAN 1 27 Apr 10:37:51 10:41:26 28° 69° (ENE) 10:45:07 437.675
YUBILEINY 27 Apr 10:43:57 10:52:19 51° 90° (E) 11:00:46 435.215
COMPASS 1 27 Apr 10:45:31 10:49:33 45° 287° (WNW) 10:53:32 437.405
UWE-3 27 Apr 10:45:39 10:50:15 50° 99° (E) 10:54:47 435.000/436.395/437.385
DELFI C3 27 Apr 10:50:26 10:54:27 60° 100° (E) 10:58:25 145.870
FUNcube-1 27 Apr 10:50:35 10:55:01 44° 98° (E) 10:59:23 145.935
AIST 2 27 Apr 10:50:44 10:52:41 13° 35° (NE) 10:54:46 435.215
UKube-1 27 Apr 10:53:36 10:57:11 25° 95° (E) 11:00:49 .
QB50P1 27 Apr 10:54:55 10:58:52 41° 72° (ENE) 11:02:53 145.935-145.965
HUMSAT D 27 Apr 10:58:01 11:01:36 25° 94° (E) 11:05:14 437.325/437.525
ANTELSAT 27 Apr 11:08:55 11:13:27 67° 259° (W) 11:18:07 437.575/2403.000
Oscar 11 27 Apr 11:12:02 11:16:20 60° 287° (WNW) 11:20:35 145.826/435.025
BEESAT 3 27 Apr 11:12:26 11:16:27 50° 52° (NE) 11:20:23 437.485
SEEDS 27 Apr 11:14:37 11:17:43 20° 293° (WNW) 11:20:43 437.485
GOMX 1 27 Apr 11:14:45 11:18:15 18° 295° (WNW) 11:21:41 467.674
BEESAT 2 27 Apr 11:16:08 11:20:08 46° 51° (NE) 11:24:05 435.950
ZACube-1 27 Apr 11:16:36 11:21:15 85° 100° (E) 11:25:50 437.345
QB50P2 27 Apr 11:21:21 11:25:35 85° 77° (ENE) 11:29:52 145.880/145.840
VELOX 1 27 Apr 11:27:02 11:30:54 29° 95° (E) 11:34:49 145.980
CANX-2 27 Apr 11:27:18 11:29:03 12° 297° (WNW) 11:30:34 2200.000
AAUSAT CUBESAT 2 27 Apr 11:27:25 11:30:30 20° 293° (WNW) 11:33:27 437.432
CUBEBUG 1 27 Apr 11:28:14 11:30:37 15° 90° (E) 11:33:11 437.445
50 SAT 27 Apr 11:29:18 11:32:58 33° 96° (E) 11:36:37 437.505
HO-68 27 Apr 11:31:34 11:37:43 31° 299° (WNW) 11:43:41 435.675
Cosmos 2491 27 Apr 11:35:37 11:43:37 39° 273° (W) 11:51:26 435.465 / 435.565
CUTE 1.7 + AOD 2 27 Apr 11:36:46 11:37:51 11° 298° (WNW) 11:38:41 437.475
ISS 27 Apr 11:36:50 11:39:52 38° 139° (SE) 11:42:56 145.825
NANOSAT C BR1 27 Apr 11:38:18 11:42:28 64° 259° (W) 11:46:41 145.865
POPSAT HIP 1 27 Apr 11:42:22 11:46:32 57° 260° (W) 11:50:42 437.405
DOVE 4 27 Apr 11:43:17 11:46:05 14° 297° (WNW) 11:48:40 437.250
AISAT 27 Apr 11:45:21 11:49:40 47° 99° (E) 11:54:00 437.250
SO-50 27 Apr 11:46:22 11:51:00 72° 122° (ESE) 11:55:49 436.795
DX 1 27 Apr 11:48:35 11:52:57 76° 285° (WNW) 11:57:19 434.975-435.025
AIST 1 27 Apr 11:51:57 11:56:10 56° 79° (ENE) 12:00:22
BUGSAT 1 27 Apr 11:57:33 12:01:29 54° 260° (W) 12:05:27 437.445
TIGRISAT 27 Apr 11:59:37 12:03:10 22° 268° (W) 12:06:41 435.000
CUBEBUG 2 27 Apr 12:00:18 12:04:16 26° 292° (WNW) 12:08:07 437.445
UNISAT 6 27 Apr 12:05:07 12:08:24 19° 269° (W) 12:11:37 437.425
DUCHIFAT 1 27 Apr 12:12:25 12:16:02 27° 265° (W) 12:19:39 145.980
Cosmos 2504 27 Apr 12:12:57 12:18:18 19° 79° (E) 12:24:03 435.465 / 435.565
POLYITAN 1 27 Apr 12:13:46 12:17:21 26° 266° (W) 12:20:54 437.675
CINEMA 3 27 Apr 12:14:46 12:17:00 13° 299° (WNW) 12:19:00 145.822/145.860
UWE-3 27 Apr 12:23:06 12:26:25 19° 295° (WNW) 12:29:36 435.000/436.395/437.385
DELFI C3 27 Apr 12:27:23 12:29:09 12° 296° (WNW) 12:30:43 145.870
FUNcube-1 27 Apr 12:27:38 12:31:03 20° 294° (WNW) 12:34:20 145.935
AIST 2 27 Apr 12:27:46 12:32:02 80° 56° (NE) 12:36:13 435.215
UKube-1 27 Apr 12:29:31 12:33:21 30° 291° (WNW) 12:37:06 .
ESTCUBE 1 27 Apr 12:30:33 12:35:03 79° 101° (E) 12:39:33 437.505/2401.250
QB50P1 27 Apr 12:32:06 12:34:59 17° 269° (W) 12:37:44 145.935-145.965
HUMSAT D 27 Apr 12:33:34 12:37:23 30° 291° (WNW) 12:41:07 437.325/437.525
SPROUT 27 Apr 12:40:48 12:44:20 24° 94° (E) 12:47:55 437.525
YUBILEINY 27 Apr 12:41:24 12:49:29 37° 291° (WNW) 12:57:26 435.215
BEESAT 3 27 Apr 12:51:31 12:54:06 16° 249° (WSW) 12:56:30 437.485
BEESAT 2 27 Apr 12:55:07 12:57:56 18° 248° (WSW) 13:00:37 435.950
ZACube-1 27 Apr 12:55:21 12:56:59 12° 299° (WNW) 12:58:24 437.345
CUBEBUG 1 27 Apr 13:03:06 13:07:21 52° 287° (WNW) 13:11:37 437.445
VELOX 1 27 Apr 13:03:37 13:07:25 27° 292° (WNW) 13:11:09 145.980
50 SAT 27 Apr 13:04:32 13:07:36 21° 293° (WNW) 13:10:34 437.505
Oscar 19 27 Apr 13:12:27 13:17:17 44° 70° (ENE) 13:22:12 437.125/150
ISS 27 Apr 13:13:16 13:16:16 33° 337° (NNW) 13:19:16 145.825
RS-15 27 Apr 13:22:32 13:31:12 30° 106° (ESE) 13:40:21 29.354- 29.394
AISAT 27 Apr 13:22:51 13:25:57 18° 295° (WNW) 13:28:55 437.250
SO-50 27 Apr 13:28:35 13:32:07 20° 322° (NW) 13:35:38 436.795
AIST 1 27 Apr 13:31:35 13:33:22 12° 275° (W) 13:34:57
BEESAT 27 Apr 13:32:27 13:33:40 11° 87° (E) 13:35:11 436.000
SWISSCUBE 27 Apr 13:34:33 13:36:37 13° 88° (E) 13:38:57 437.505
TISAT 1 27 Apr 13:38:20 13:42:37 82° 103° (ESE) 13:46:53 437.305
ITAMSAT 1 27 Apr 13:51:43 13:56:15 33° 67° (ENE) 14:00:52 435.822/435.867
Cosmos 2504 27 Apr 14:01:47 14:10:41 87° 97° (E) 14:19:28 435.465 / 435.565
AIST 2 27 Apr 14:09:26 14:10:02 10° 251° (WSW) 14:10:24 435.215
ESTCUBE 1 27 Apr 14:09:39 14:11:23 12° 298° (WNW) 14:12:52 437.505/2401.250
SPROUT 27 Apr 14:16:37 14:20:28 31° 290° (WNW) 14:24:15 437.525
Gurwin Techsat 1B 27 Apr 14:31:59 14:37:13 65° 73° (ENE) 14:42:31 435.225
ITUPSAT 1 27 Apr 14:37:54 14:42:33 51° 100° (E) 14:47:12 437.325
ISS 27 Apr 14:51:04 14:53:19 17° 357° (N) 14:55:34 145.825
Oscar 19 27 Apr 14:52:42 14:56:52 24° 268° (W) 15:00:57 437.125/150
JAS-2 27 Apr 14:54:11 15:00:18 27° 62° (ENE) 15:06:23 435.910
AO-7 27 Apr 15:05:20 15:12:40 38° 60° (ENE) 15:20:09 29.400- 29.500
BEESAT 27 Apr 15:07:25 15:12:12 79° 285° (WNW) 15:16:57 436.000
SWISSCUBE 27 Apr 15:10:19 15:15:04 68° 286° (WNW) 15:19:46 437.505
GONETS M04 27 Apr 15:11:17 15:15:55 16° 77° (ENE) 15:21:08
TISAT 1 27 Apr 15:16:58 15:17:50 10° 298° (WNW) 15:18:27 437.305
STARS 27 Apr 15:21:40 15:24:38 18° 91° (E) 15:27:44 437.465
ITAMSAT 1 27 Apr 15:31:06 15:35:45 32° 264° (W) 15:40:21 435.822/435.867
RS-15 27 Apr 15:31:44 15:42:38 76° 307° (NW) 15:53:51 29.354- 29.394
PCSat 27 Apr 15:49:06 15:52:27 17° 38° (NE) 15:55:58 145.827
HORYU 2 27 Apr 15:51:14 15:55:43 79° 76° (ENE) 16:00:15 437.375
Cosmos 2504 27 Apr 15:58:40 16:05:22 22° 299° (WNW) 16:11:37 435.465 / 435.565
KKS-1 27 Apr 16:07:13 16:11:45 85° 106° (ESE) 16:16:14 437.445
VERMONT LUNAR 27 Apr 16:07:22 16:09:58 21° 155° (SSE) 16:12:36 437.305
Gurwin Techsat 1B 27 Apr 16:14:20 16:17:46 17° 271° (W) 16:20:58 435.225
ITUPSAT 1 27 Apr 16:16:46 16:20:07 19° 296° (WNW) 16:23:20 437.325
ISS 27 Apr 16:27:46 16:30:29 23° 17° (NNE) 16:33:12 145.825
JAS-2 27 Apr 16:36:56 16:44:48 73° 258° (WSW) 16:52:22 435.910
MOZHAYETS 4 27 Apr 16:49:41 16:52:40 17° 90° (E) 16:55:47
PHONESAT 2.4 27 Apr 16:56:11 16:58:47 19° 153° (SSE) 17:01:27 2401.200-2431.200
STARS 27 Apr 16:57:06 17:01:21 45° 289° (WNW) 17:05:36 437.465
AO-7 27 Apr 16:57:14 17:05:17 53° 259° (W) 17:13:20 29.400- 29.500
CUTE-I 27 Apr 16:59:00 17:01:13 13° 59° (ENE) 17:03:40 437.470
GONETS M04 27 Apr 17:02:46 17:11:33 83° 95° (E) 17:20:25
CUSAT 1 27 Apr 17:04:35 17:08:04 35° 90° (E) 17:12:38 437.405
Cubesat XI-IV 27 Apr 17:08:19 17:11:21 16° 61° (ENE) 17:14:36 437.490
PCSat 27 Apr 17:31:20 17:36:48 83° 59° (ENE) 17:42:13 145.827
HORYU 2 27 Apr 17:32:30 17:33:03 10° 273° (W) 17:33:17 437.375
VERMONT LUNAR 27 Apr 17:43:46 17:47:03 52° 171° (S) 17:50:22 437.305
KKS-1 27 Apr 17:46:26 17:47:46 11° 299° (WNW) 17:48:53 437.445
RS-15 27 Apr 17:47:55 17:57:18 30° 336° (NNW) 18:06:50 29.354- 29.394
DANDE 27 Apr 17:57:35 18:01:05 83° 278° (W) 18:05:52 436.750
ISS 27 Apr 18:03:52 18:07:08 79° 216° (SW) 18:10:23 145.825
Cosmos 2499 27 Apr 18:17:28 18:25:47 48° 90° (E) 18:33:56 435.465 / 435.565
MOZHAYETS 4 27 Apr 18:25:47 18:30:14 47° 287° (WNW) 18:34:35
JAS-2 27 Apr 18:27:06 18:31:06 14° 277° (W) 18:34:30 435.910
CUBESAT XI-V 27 Apr 18:32:06 18:34:58 17° 90° (E) 18:38:00 437.345
PHONESAT 2.4 27 Apr 18:33:08 18:36:37 50° 169° (S) 18:40:07 2401.200-2431.200
CUTE-I 27 Apr 18:35:16 18:40:35 87° 79° (E) 18:45:57 437.470
M-CUBED/EXP-1 PRIME 27 Apr 18:36:07 18:37:37 12° 92° (E) 18:39:17 437.505
SO-50 27 Apr 18:37:45 18:40:45 16° 34° (NE) 18:43:51 436.795
Cubesat XI-IV 27 Apr 18:45:34 18:50:54 76° 257° (WSW) 18:56:16 437.490
CUSAT 1 27 Apr 18:48:02 18:51:10 20° 299° (WNW) 18:54:52 437.405
GONETS M04 27 Apr 19:02:56 19:09:41 23° 299° (WNW) 19:16:07
AUBIESAT-1 27 Apr 19:14:54 19:18:27 29° 99° (E) 19:21:47 437.475
PCSat 27 Apr 19:16:48 19:19:35 14° 255° (WSW) 19:22:04 145.827
VERMONT LUNAR 27 Apr 19:21:03 19:24:21 54° 188° (S) 19:27:40 437.305
STRAND 1 27 Apr 19:29:17 19:33:42 30° 95° (E) 19:38:12 437.568
BRITE-PL 27 Apr 19:32:11 19:35:05 19° 65° (ENE) 19:38:11 437.365/2234.400
PRISM 27 Apr 19:44:48 19:48:49 53° 100° (E) 19:52:50 437.425
COMPASS 1 27 Apr 20:04:03 20:06:01 13° 64° (ENE) 20:08:10 437.405
RS-15 27 Apr 20:05:52 20:14:31 25° 11° (N) 20:23:35 29.354- 29.394
CUBESAT XI-V 27 Apr 20:08:17 20:12:46 51° 288° (WNW) 20:17:13 437.345
M-CUBED/EXP-1 PRIME 27 Apr 20:08:57 20:13:04 55° 292° (WNW) 20:16:48 437.505
Cosmos 2499 27 Apr 20:10:52 20:19:08 41° 289° (WNW) 20:27:01 435.465 / 435.565
PHONESAT 2.4 27 Apr 20:11:08 20:14:41 58° 186° (S) 20:18:14 2401.200-2431.200
HO-68 27 Apr 20:12:25 20:19:10 46° 66° (ENE) 20:26:00 435.675
SO-50 27 Apr 20:17:10 20:22:09 78° 56° (NE) 20:27:04 436.795
CUTE-I 27 Apr 20:19:30 20:21:31 12° 274° (W) 20:23:10 437.470
SEEDS 27 Apr 20:31:04 20:34:48 31° 70° (ENE) 20:38:36 437.485
Oscar 11 27 Apr 20:34:11 20:35:51 12° 63° (ENE) 20:37:44 145.826/435.025
CANX-2 27 Apr 20:42:47 20:46:58 54° 74° (ENE) 20:51:13 2200.000
AAUSAT CUBESAT 2 27 Apr 20:42:53 20:46:30 29° 70° (ENE) 20:50:12 437.432
GOMX 1 27 Apr 20:44:55 20:49:07 71° 75° (ENE) 20:53:34 467.674
AUBIESAT-1 27 Apr 20:49:48 20:53:09 23° 299° (WNW) 20:56:13 437.475
CUTE 1.7 + AOD 2 27 Apr 20:51:30 20:55:45 61° 75° (ENE) 21:00:01 437.475
YUBILEINY 27 Apr 20:53:32 21:00:27 26° 63° (ENE) 21:07:35 435.215
VERMONT LUNAR 27 Apr 20:58:45 21:01:29 23° 204° (SSW) 21:04:12 437.305
STRAND 1 27 Apr 21:08:21 21:12:57 34° 292° (WNW) 21:17:29 437.568
BRITE-PL 27 Apr 21:09:29 21:13:23 38° 263° (W) 21:17:27 437.365/2234.400
DOVE 4 27 Apr 21:10:28 21:14:45 88° 80° (E) 21:19:19 437.250
DX 1 27 Apr 21:12:16 21:13:22 11° 61° (ENE) 21:14:40 434.975-435.025
PRISM 27 Apr 21:21:40 21:23:54 14° 296° (WNW) 21:25:58 437.425
CUBEBUG 2 27 Apr 21:22:29 21:26:23 32° 69° (ENE) 21:30:29 437.445
COMPASS 1 27 Apr 21:37:03 21:41:15 61° 259° (W) 21:45:28 437.405
CINEMA 3 27 Apr 21:37:57 21:42:20 87° 77° (ENE) 21:46:58 145.822/145.860
DELFI C3 27 Apr 21:38:37 21:42:26 40° 72° (ENE) 21:46:18 145.870
O/OREOS (USA 219) 27 Apr 21:42:37 21:46:24 27° 104° (ESE) 21:50:15 437.305
UWE-3 27 Apr 21:43:31 21:47:40 43° 72° (ENE) 21:52:00 435.000/436.395/437.385
FUNcube-1 27 Apr 21:47:07 21:51:08 37° 71° (ENE) 21:55:18 145.935
UKube-1 27 Apr 21:49:26 21:52:54 25° 67° (ENE) 21:56:28 .
PHONESAT 2.4 27 Apr 21:49:30 21:52:38 27° 202° (SSW) 21:55:43 2401.200-2431.200
HUMSAT D 27 Apr 21:51:02 21:54:10 21° 67° (ENE) 21:57:26 437.325/437.525
SO-50 27 Apr 21:59:31 22:02:09 14° 251° (WSW) 22:04:31 436.795
HO-68 27 Apr 22:00:30 22:07:03 36° 264° (W) 22:13:33 435.675
SEEDS 27 Apr 22:07:07 22:10:39 24° 267° (W) 22:14:07 437.485
Oscar 11 27 Apr 22:07:10 22:11:31 71° 259° (W) 22:15:54 145.826/435.025
ZACube-1 27 Apr 22:13:05 22:17:26 73° 75° (ENE) 22:21:56 437.345
50 SAT 27 Apr 22:15:44 22:18:51 22° 68° (ENE) 22:22:03 437.505
AAUSAT CUBESAT 2 27 Apr 22:18:36 22:22:08 25° 266° (W) 22:25:37 437.432
RS-15 27 Apr 22:19:39 22:30:38 49° 42° (NE) 22:42:11 29.354- 29.394
CANX-2 27 Apr 22:20:58 22:23:18 14° 271° (W) 22:25:27 2200.000
VELOX 1 27 Apr 22:25:34 22:29:21 29° 69° (ENE) 22:33:11 145.980
CUBEBUG 1 27 Apr 22:25:49 22:28:06 15° 64° (ENE) 22:30:34 437.445
GOMX 1 27 Apr 22:27:35 22:28:01 10° 275° (W) 22:28:10 467.674
CUTE 1.7 + AOD 2 27 Apr 22:30:17 22:32:09 12° 272° (W) 22:33:49 437.475
Cosmos 2491 27 Apr 22:40:17 22:48:38 54° 91° (E) 22:57:07 435.465 / 435.565
AISAT 27 Apr 22:43:55 22:48:06 46° 72° (ENE) 22:52:21 437.250
DX 1 27 Apr 22:44:43 22:49:03 80° 257° (WSW) 22:53:24 434.975-435.025
YUBILEINY 27 Apr 22:49:31 22:58:15 72° 266° (W) 23:06:52 435.215
CUBEBUG 2 27 Apr 22:59:28 23:03:08 25° 267° (W) 23:06:52 437.445
ANTELSAT 27 Apr 23:00:46 23:04:38 25° 93° (E) 23:08:31 437.575/2403.000
QB50P2 27 Apr 23:07:38 23:09:41 13° 89° (E) 23:11:56 145.880/145.840
DELFI C3 27 Apr 23:15:04 23:17:47 17° 269° (W) 23:20:23 145.870
UWE-3 27 Apr 23:21:21 23:24:30 18° 270° (W) 23:27:33 435.000/436.395/437.385
O/OREOS (USA 219) 27 Apr 23:21:36 23:25:44 32° 301° (WNW) 23:29:51 437.305
NANOSAT C BR1 27 Apr 23:23:17 23:26:21 19° 92° (E) 23:29:31 145.865
FUNcube-1 27 Apr 23:24:15 23:27:38 21° 268° (W) 23:30:59 145.935
UKube-1 27 Apr 23:25:06 23:28:57 31° 264° (W) 23:32:47 .
HUMSAT D 27 Apr 23:25:46 23:29:42 37° 263° (W) 23:33:42 437.325/437.525
POPSAT HIP 1 27 Apr 23:27:24 23:30:42 22° 93° (E) 23:34:05 437.405
ESTCUBE 1 27 Apr 23:30:44 23:35:15 79° 74° (ENE) 23:39:46 437.505/2401.250
SPROUT 27 Apr 23:36:10 23:39:22 22° 67° (ENE) 23:42:41 437.525
BUGSAT 1 27 Apr 23:39:33 23:42:35 20° 93° (E) 23:45:44 437.445
TIGRISAT 27 Apr 23:49:16 23:54:00 77° 102° (ESE) 23:58:39 435.000
50 SAT 27 Apr 23:49:58 23:53:31 30° 264° (W) 23:57:05 437.505
ZACube-1 27 Apr 23:53:13 23:54:27 11° 274° (W) 23:55:25 437.345
UNISAT 6 27 Apr 23:54:41 23:59:25 90° 103° (ESE) 00:04:04 437.425
Cosmos 2504 27 Apr 23:54:58 00:01:57 33° 68° (ENE) 00:08:38 435.465 / 435.565
DUCHIFAT 1 27 Apr 23:55:44 23:59:49 42° 98° (E) 00:03:55 145.980
POLYITAN 1 27 Apr 23:57:40 00:01:51 47° 99° (E) 00:06:01 437.675
CUBEBUG 1 27 Apr 23:59:49 00:04:04 57° 260° (W) 00:08:21 437.445
VELOX 1 28 Apr 00:02:10 00:05:55 27° 265° (W) 00:09:38 145.980
QB50P1 28 Apr 00:14:42 00:19:00 72° 102° (ESE) 00:23:17 145.935-145.965
AISAT 28 Apr 00:22:06 00:25:00 17° 269° (W) 00:27:46 437.250
AIST 1 28 Apr 00:22:27 00:26:14 32° 92° (E) 00:30:04
TISAT 1 28 Apr 00:31:06 00:35:15 66° 74° (ENE) 00:39:27 437.305
RS-15 28 Apr 00:32:15 00:43:31 59° 245° (WSW) 00:55:09 29.354- 29.394
ANTELSAT 28 Apr 00:37:12 00:41:30 35° 290° (WNW) 00:45:40 437.575/2403.000
Cosmos 2491 28 Apr 00:38:04 00:45:57 35° 292° (WNW) 00:53:43 435.465 / 435.565
BEESAT 28 Apr 00:39:10 00:41:56 16° 63° (ENE) 00:44:52 436.000
SWISSCUBE 28 Apr 00:41:41 00:44:49 18° 64° (ENE) 00:48:05 437.505
QB50P2 28 Apr 00:41:46 00:46:00 56° 287° (WNW) 00:50:12 145.880/145.840
YUBILEINY 28 Apr 00:49:42 00:53:38 13° 285° (WNW) 00:56:55 435.215
NANOSAT C BR1 28 Apr 00:58:22 01:02:22 38° 289° (WNW) 01:06:20 145.865
POPSAT HIP 1 28 Apr 01:02:45 01:06:41 34° 289° (WNW) 01:10:34 437.405
SPROUT 28 Apr 01:11:21 01:15:17 35° 263° (W) 01:19:13 437.525
ESTCUBE 1 28 Apr 01:12:11 01:12:47 10° 274° (W) 01:13:04 437.505/2401.250
BUGSAT 1 28 Apr 01:14:22 01:18:11 35° 289° (WNW) 01:22:00 437.445
Oscar 19 28 Apr 01:24:41 01:27:19 14° 88° (E) 01:30:13 437.125/150
TIGRISAT 28 Apr 01:27:55 01:30:09 13° 298° (WNW) 01:32:10 435.000
DUCHIFAT 1 28 Apr 01:32:21 01:35:23 18° 294° (WNW) 01:38:16 145.980
UNISAT 6 28 Apr 01:33:59 01:35:32 11° 299° (WNW) 01:36:49 437.425
POLYITAN 1 28 Apr 01:34:32 01:37:26 17° 295° (WNW) 01:40:12 437.675
ITUPSAT 1 28 Apr 01:45:20 01:50:04 65° 73° (ENE) 01:54:50 437.325
Cosmos 2504 28 Apr 01:48:06 01:55:45 51° 270° (W) 02:02:50 435.465 / 435.565
QB50P1 28 Apr 01:52:40 01:54:21 12° 297° (WNW) 01:55:50 145.935-145.965
AIST 1 28 Apr 02:00:36 02:03:59 22° 289° (WNW) 02:07:16
TISAT 1 28 Apr 02:10:29 02:11:35 11° 273° (W) 02:12:26 437.305
BEESAT 28 Apr 02:14:35 02:19:19 64° 259° (W) 02:24:05 436.000
SWISSCUBE 28 Apr 02:17:37 02:22:18 54° 260° (W) 02:27:00 437.505
STARS 28 Apr 02:19:45 02:22:41 18° 65° (ENE) 02:25:46 437.465
AIST 2 28 Apr 02:28:17 02:30:30 14° 110° (ESE) 02:32:53 435.215
BEESAT 3 28 Apr 02:43:30 02:47:35 76° 122° (ESE) 02:51:43 437.485
Gurwin Techsat 1B 28 Apr 02:48:03 02:52:15 24° 92° (E) 02:56:34 435.225
BEESAT 2 28 Apr 02:48:10 02:52:15 71° 121° (ESE) 02:56:24 435.950
RS-15 28 Apr 02:50:17 02:53:58 11° 263° (W) 02:56:23 29.354- 29.394
DANDE 28 Apr 02:52:35 02:57:46 20° 62° (ENE) 03:03:44 436.750
Oscar 19 28 Apr 03:02:06 03:07:19 72° 286° (WNW) 03:12:29 437.125/150
KKS-1 28 Apr 03:05:56 03:10:22 84° 75° (ENE) 03:14:52 437.445
GONETS M04 28 Apr 03:12:22 03:20:40 43° 71° (ENE) 03:29:00
ITUPSAT 1 28 Apr 03:25:55 03:28:30 14° 271° (W) 03:30:51 437.325
CUSAT 1 28 Apr 03:38:17 03:45:40 47° 73° (ENE) 03:53:40 437.405
ITAMSAT 1 28 Apr 03:42:21 03:47:34 84° 103° (ESE) 03:52:46 435.822/435.867
HORYU 2 28 Apr 03:43:22 03:45:44 14° 89° (E) 03:48:18 437.375
JAS-2 28 Apr 03:49:23 03:52:19 14° 83° (E) 03:55:27 435.910
MOZHAYETS 4 28 Apr 03:52:34 03:55:47 19° 66° (ENE) 03:59:09
STARS 28 Apr 03:54:37 03:58:50 46° 261° (W) 04:03:06 437.465
AIST 2 28 Apr 04:04:25 04:08:39 61° 306° (NW) 04:12:55 435.215
Cosmos 2499 28 Apr 04:10:01 04:14:11 16° 56° (ENE) 04:18:35 435.465 / 435.565
BEESAT 3 28 Apr 04:23:37 04:26:08 15° 322° (NW) 04:28:34 437.485
Gurwin Techsat 1B 28 Apr 04:27:25 04:32:29 45° 290° (WNW) 04:37:29 435.225
BEESAT 2 28 Apr 04:28:10 04:30:51 16° 321° (NW) 04:33:28 435.950
